Location: Titusville
(28.6119°N, 80.8078°W)
Time: 04:49:04
(UTC-04:00)

Tiangong 2 - Visible Passes

Search period start: 20 August 2018 00:00
Search period end: 30 August 2018 00:00
Orbit: 384 x 395 km, 42.8° (Epoch: 19 August)

Date Brightness Start Highest point End Pass type
(mag) Time Alt. Az. Time Alt. Az. Time Alt. Az.
20 Aug 4.3 04:44:01 12° N 04:44:01 12° N 04:44:26 10° NNE visible
25 Aug 4.0 06:21:02 10° NNW 06:22:57 15° NNE 06:24:51 10° ENE visible
26 Aug 4.3 05:24:13 10° N 05:24:45 10° NNE 05:25:18 10° NNE visible
27 Aug 3.3 06:01:26 10° NNW 06:04:08 24° NNE 06:06:50 10° E visible
28 Aug 3.8 05:05:09 14° N 05:06:02 16° NNE 05:08:03 10° ENE visible
29 Aug 1.9 05:43:06 18° NW 05:45:11 49° NNE 05:48:18 10° ESE visible
